period_start,C,m1,H,J0,J1,J2,J3,J4,J5,JA,JB,JC,JD,JJ,JK,JN,#
2017-11-02 00:02:07,0.02,2.17,0.00,16.01,19.20,22.33,14.42,47.01,1027.36,2059.99,2712.96,2586.97,2944.61,600.09,616.99,23.99,0000 0000 0000 0000 000000
2017-11-02 00:07:08,0.05,2.17,0.00,16.04,19.22,22.34,14.38,47.00,1027.36,2059.97,2712.13,2586.24,2944.03,600.04,616.82,24.04,0000 0000 0000 0000 000000
2017-11-02 00:12:10,0.03,2.17,0.00,16.07,19.23,22.35,14.40,46.92,1027.36,2059.98,2711.57,2585.99,2943.67,600.07,616.69,24.09,0000 0000 0000 0000 000000
2017-11-02 00:17:11,0.04,2.17,0.00,16.07,19.24,22.40,14.43,46.90,1027.36,2059.96,2710.90,2585.51,2943.01,600.00,616.76,24.14,0000 0000 0000 0000 000000
2017-11-02 00:22:12,0.02,2.18,0.00,16.07,19.26,22.40,14.41,46.88,1027.36,2059.87,2710.11,2585.01,2942.37,599.89,616.65,24.19,0000 0000 0000 0000 000000
2017-11-02 00:27:14,0.04,2.18,0.00,16.09,19.27,22.43,14.40,46.91,1027.36,2059.79,2709.50,2584.64,2941.85,599.84,616.69,24.24,0000 0000 0000 0000 000000
2017-11-02 00:32:15,0.05,2.18,0.00,16.12,19.28,22.44,14.37,46.88,1027.36,2059.41,2707.94,2583.74,2940.78,599.87,616.56,24.29,0000 0000 0000 0000 000000
2017-11-02 00:37:16,0.03,2.18,0.00,16.13,19.29,22.44,14.49,47.01,1027.36,2059.17,2706.82,2583.00,2939.90,599.93,616.53,24.34,0000 0000 0000 0000 000000
2017-11-02 00:42:18,0.05,2.18,0.00,16.14,19.30,22.47,14.42,46.89,1027.36,2059.07,2706.00,2582.36,2939.10,600.19,616.80,24.39,0000 0000 0000 0000 000000
2017-11-02 00:47:19,0.03,2.19,0.00,16.17,19.32,22.47,14.42,46.84,1027.36,2059.04,2705.16,2582.00,2938.74,600.11,616.78,24.44,0000 0000 0000 0000 000000
2017-11-02 00:52:20,0.02,2.19,0.00,16.18,19.32,22.46,14.37,46.79,1027.36,2059.01,2704.85,2581.71,2938.03,599.79,616.37,24.49,0000 0000 0000 0000 000000
2017-11-02 00:57:21,0.04,2.19,0.00,16.19,19.34,22.52,14.40,46.82,1027.36,2059.01,2704.04,2581.06,2937.70,600.00,616.52,24.54,0000 0000 0000 0000 000000
2017-11-02 01:02:23,0.03,2.19,0.00,16.19,19.34,22.52,14.39,46.75,1027.35,2059.01,2703.23,2580.96,2937.03,599.78,616.20,24.59,0000 0000 0000 0000 000000
2017-11-02 01:07:24,0.04,2.19,0.00,16.22,19.36,22.53,14.34,46.89,1027.36,2059.00,2702.80,2580.31,2936.75,600.08,616.47,24.64,0000 0000 0000 0000 000000
2017-11-02 01:12:26,0.03,2.20,0.00,16.23,19.37,22.57,14.45,46.85,1027.35,2059.00,2701.84,2580.00,2936.04,599.57,615.98,24.69,0000 0000 0000 0000 000000
2017-11-02 01:17:27,0.03,2.20,0.00,16.24,19.38,22.58,14.47,46.87,1027.35,2059.00,2701.05,2579.66,2935.80,600.31,616.59,24.74,0000 0000 0000 0000 000000
2017-11-02 01:22:29,0.04,2.20,0.00,16.24,19.39,22.56,14.43,46.96,1027.34,2059.00,2700.52,2579.03,2935.04,599.96,616.37,24.79,0000 0000 0000 0000 000000
2017-11-02 01:27:30,0.01,2.20,0.00,16.25,19.39,22.59,14.44,46.86,1027.31,2059.00,2699.91,2578.95,2934.76,599.96,616.28,24.84,0000 0000 0000 0000 000000
2017-11-02 01:32:31,0.06,2.20,0.00,16.27,19.41,22.56,14.42,46.78,1027.24,2059.00,2699.02,2578.21,2934.09,599.89,616.22,24.89,0000 0000 0000 0000 000000
2017-11-02 01:37:32,0.02,2.21,0.00,16.25,19.42,22.58,14.41,46.88,1027.08,2059.00,2698.14,2577.99,2933.87,600.03,616.20,24.94,0000 0000 0000 0000 000000
2017-11-02 01:42:34,0.06,2.21,0.00,16.27,19.43,22.60,14.38,46.91,1027.08,2059.00,2697.38,2577.27,2933.08,599.92,616.05,24.99,0000 0000 0000 0000 000000
2017-11-02 01:47:35,0.04,2.21,0.00,16.28,19.44,22.60,14.43,46.87,1027.11,2058.99,2696.67,2576.93,2932.33,600.20,616.45,25.04,0000 0000 0000 0000 000000
2017-11-02 01:52:36,0.04,2.21,0.00,16.25,19.45,22.60,14.44,47.00,1027.15,2058.98,2695.90,2576.17,2931.87,600.04,616.29,25.09,0000 0000 0000 0000 000000
2017-11-02 01:57:37,0.05,2.22,0.00,16.27,19.47,22.62,14.41,46.83,1027.12,2058.97,2694.89,2575.77,2930.98,600.10,616.37,25.14,0000 0000 0000 0000 000000
2017-11-02 02:02:39,0.14,2.22,0.00,16.28,19.47,22.62,14.40,46.78,1027.07,2058.98,2693.00,2574.45,2929.47,600.07,616.20,25.19,0000 0000 0000 0000 000000
2017-11-02 02:07:40,0.08,2.23,0.00,16.27,19.49,22.65,14.45,46.88,1027.06,2058.93,2691.17,2573.10,2928.03,600.07,616.36,25.24,0000 0000 0000 0000 000000
2017-11-02 02:12:41,0.02,2.23,0.00,16.28,19.49,22.63,14.46,46.82,1027.07,2058.86,2690.72,2572.95,2927.35,599.96,616.10,25.29,0000 0000 0000 0000 000000
2017-11-02 02:17:42,0.01,2.23,0.00,16.29,19.51,22.65,14.37,46.83,1027.02,2058.64,2690.02,2572.29,2926.98,599.99,616.08,25.34,0000 0000 0000 0000 000000
2017-11-02 02:22:44,0.04,2.23,0.00,16.29,19.52,22.63,14.41,46.83,1027.05,2058.35,2689.23,2572.00,2926.28,599.97,616.04,25.39,0000 0000 0000 0000 000000
2017-11-02 02:27:45,0.00,2.23,0.00,16.29,19.53,22.65,14.44,47.02,1027.05,2058.20,2688.84,2571.75,2925.96,599.71,615.81,25.44,0000 0000 0000 0000 000000
2017-11-02 02:32:47,0.03,2.23,0.00,16.29,19.54,22.65,14.38,46.99,1027.04,2058.05,2688.05,2571.05,2925.19,599.62,615.73,25.49,0000 0000 0000 0000 000000
2017-11-02 02:37:48,0.02,2.23,0.00,16.29,19.54,22.66,14.41,46.88,1027.03,2058.03,2687.50,2570.99,2924.98,599.93,616.15,25.54,0000 0000 0000 0000 000000
2017-11-02 02:42:49,0.04,2.24,0.00,16.31,19.54,22.70,14.43,46.88,1027.11,2058.03,2686.98,2570.47,2924.41,599.93,615.97,25.59,0000 0000 0000 0000 000000
2017-11-02 02:47:50,0.03,2.24,0.00,16.31,19.56,22.66,14.42,46.84,1027.08,2058.03,2686.17,2570.02,2924.00,599.98,616.05,25.64,0000 0000 0000 0000 000000
2017-11-02 02:52:52,0.04,2.24,0.00,16.32,19.57,22.71,14.43,46.90,1026.94,2058.02,2685.55,2569.78,2923.53,600.14,616.11,25.69,0000 0000 0000 0000 000000
2017-11-02 02:57:53,0.03,2.24,0.00,16.32,19.57,22.70,14.35,47.00,1026.89,2058.01,2684.96,2569.10,2923.00,599.65,615.49,25.74,0000 0000 0000 0000 000000
2017-11-02 03:02:54,0.03,2.24,0.00,16.33,19.57,22.68,14.35,46.90,1026.89,2058.01,2684.13,2568.99,2922.59,599.84,615.75,25.79,0000 0000 0000 0000 000000
2017-11-02 03:07:55,0.04,2.24,0.00,16.32,19.59,22.69,14.45,46.91,1026.88,2058.01,2683.73,2568.57,2922.03,600.14,616.15,25.84,0000 0000 0000 0000 000000
2017-11-02 03:12:56,0.02,2.25,0.00,16.32,19.59,22.68,14.32,46.88,1026.88,2058.02,2683.04,2568.03,2921.88,599.67,615.63,25.89,0000 0000 0000 0000 000000
2017-11-02 03:17:57,0.03,2.25,0.00,16.34,19.60,22.74,14.41,46.92,1026.88,2058.01,2682.60,2567.99,2921.12,599.91,615.86,25.94,0000 0000 0000 0000 000000
2017-11-02 03:22:59,0.04,2.25,0.00,16.36,19.62,22.72,14.44,47.02,1026.88,2058.00,2681.92,2567.33,2920.89,600.07,616.03,25.99,0000 0000 0000 0000 000000
2017-11-02 03:28:00,0.04,2.25,0.00,16.35,19.62,22.74,14.35,46.92,1026.89,2058.00,2681.12,2567.00,2920.09,599.66,615.55,26.04,0000 0000 0000 0000 000000
2017-11-02 03:33:01,0.05,2.25,0.00,16.37,19.63,22.76,14.39,46.83,1026.90,2058.00,2680.37,2566.60,2919.81,600.11,615.98,26.09,0000 0000 0000 0000 000000
2017-11-02 03:38:02,0.04,2.26,0.00,16.39,19.64,22.75,14.42,46.88,1026.93,2058.00,2679.43,2566.00,2919.02,600.26,616.04,26.14,0000 0000 0000 0000 000000
2017-11-02 03:43:03,0.07,2.26,0.00,16.39,19.64,22.76,14.41,46.95,1026.92,2058.00,2678.45,2565.34,2918.25,600.05,615.83,26.19,0000 0000 0000 0000 000000
2017-11-02 03:48:05,0.06,2.26,0.00,16.39,19.65,22.73,14.36,46.97,1026.95,2058.00,2677.36,2564.75,2917.44,599.45,615.34,26.24,0000 0000 0000 0000 000000
2017-11-02 03:53:06,0.05,2.27,0.00,16.41,19.67,22.75,14.46,46.96,1027.01,2058.00,2676.34,2564.03,2916.79,600.14,615.90,26.29,0000 0000 0000 0000 000000
2017-11-02 03:58:07,0.05,2.27,0.00,16.42,19.67,22.76,14.36,46.87,1027.01,2058.00,2675.54,2563.63,2916.07,599.84,615.67,26.34,0000 0000 0000 0000 000000
2017-11-02 04:03:09,0.04,2.27,0.00,16.43,19.67,22.76,14.41,46.90,1026.98,2058.00,2674.68,2563.01,2915.46,600.22,615.99,26.39,0000 0000 0000 0000 000000
2017-11-02 04:08:10,0.05,2.27,0.00,16.44,19.69,22.78,14.33,46.88,1026.93,2057.99,2673.73,2562.38,2914.82,599.95,615.57,26.44,0000 0000 0000 0000 000000
2017-11-02 04:13:11,0.03,2.28,0.00,16.43,19.69,22.75,14.42,46.92,1026.91,2057.99,2672.85,2561.98,2914.05,600.25,615.99,26.49,0000 0000 0000 0000 000000
2017-11-02 04:18:13,0.05,2.28,0.00,16.44,19.70,22.78,14.37,46.98,1026.94,2057.98,2672.05,2561.41,2913.66,599.83,615.56,26.55,0000 0000 0000 0000 000000
2017-11-02 04:23:14,0.03,2.28,0.00,16.45,19.72,22.81,14.38,46.97,1026.92,2057.98,2671.53,2561.01,2913.03,600.20,615.86,26.60,0000 0000 0000 0000 000000
2017-11-02 04:28:15,0.03,2.28,0.00,16.44,19.72,22.80,14.46,47.02,1026.92,2057.97,2670.85,2560.76,2912.69,600.22,615.95,26.65,0000 0000 0000 0000 000000
2017-11-02 04:33:17,0.04,2.29,0.00,16.46,19.74,22.81,14.39,46.94,1026.97,2057.98,2670.06,2560.06,2912.03,599.97,615.73,26.70,0000 0000 0000 0000 000000
2017-11-02 04:38:18,0.02,2.29,0.00,16.46,19.74,22.86,14.32,47.01,1027.03,2057.97,2669.61,2559.99,2911.85,599.77,615.56,26.75,0000 0000 0000 0000 000000
2017-11-02 04:43:19,0.04,2.29,0.00,16.47,19.75,22.87,14.41,47.01,1026.94,2057.94,2669.01,2559.48,2911.06,599.70,615.41,26.80,0000 0000 0000 0000 000000
2017-11-02 04:48:21,0.02,2.29,0.00,16.48,19.77,22.90,14.29,46.98,1026.96,2057.90,2668.40,2559.02,2910.89,599.61,615.29,26.85,0000 0000 0000 0000 000000
2017-11-02 04:53:22,0.02,2.29,0.00,16.49,19.77,22.84,14.37,47.00,1027.05,2057.88,2668.00,2559.00,2910.11,600.12,615.75,26.90,0000 0000 0000 0000 000000
2017-11-02 04:58:23,0.01,2.29,0.00,16.49,19.78,22.84,14.33,47.01,1027.09,2057.73,2667.30,2558.79,2909.91,599.73,615.53,26.95,0000 0000 0000 0000 000000
2017-11-02 05:03:24,0.02,2.29,0.00,16.49,19.79,22.91,14.48,46.98,1027.12,2057.42,2666.93,2558.07,2909.15,599.88,615.72,27.00,0000 0000 0000 0000 000000
2017-11-02 05:08:25,-0.00,2.29,0.00,16.51,19.79,22.83,14.35,46.97,1027.04,2057.10,2666.10,2557.99,2908.97,599.96,615.66,27.05,0000 0000 0000 0000 000000
2017-11-02 05:13:26,0.05,2.29,0.00,16.52,19.81,22.86,14.48,46.94,1027.06,2057.11,2665.65,2557.62,2908.22,600.02,615.72,27.10,0000 0000 0000 0000 000000
2017-11-02 05:18:28,0.02,2.30,0.00,16.54,19.82,22.92,14.34,46.93,1027.26,2057.10,2665.02,2557.04,2907.99,599.97,615.71,27.15,0000 0000 0000 0000 000000
2017-11-02 05:23:28,0.03,2.30,0.00,16.56,19.82,22.88,14.36,46.94,1027.31,2057.08,2664.45,2556.99,2907.54,600.24,615.86,27.20,0000 0000 0000 0000 000000
2017-11-02 05:28:30,0.03,2.30,0.00,16.56,19.83,22.91,14.41,46.94,1027.28,2057.03,2664.00,2556.45,2907.00,599.90,615.65,27.25,0000 0000 0000 0000 000000
2017-11-02 05:33:31,0.04,2.30,0.00,16.57,19.84,22.93,14.47,47.05,1027.21,2057.01,2663.23,2556.01,2906.53,600.53,616.15,27.30,0000 0000 0000 0000 000000
2017-11-02 05:38:32,0.01,2.30,0.00,16.60,19.84,22.98,14.42,47.01,1027.11,2057.00,2662.73,2555.89,2906.02,600.08,615.51,27.35,0000 0000 0000 0000 000000
2017-11-02 05:43:33,0.05,2.30,0.00,16.61,19.86,22.97,14.39,46.88,1027.18,2057.00,2662.04,2555.24,2905.69,599.82,615.43,27.40,0000 0000 0000 0000 000000
2017-11-02 05:48:34,0.02,2.31,0.00,16.61,19.87,22.98,14.34,46.93,1027.24,2057.00,2661.48,2555.00,2905.04,599.94,615.56,27.45,0000 0000 0000 0000 000000
2017-11-02 05:53:35,0.05,2.31,0.00,16.61,19.87,23.00,14.26,47.01,1027.26,2057.00,2660.76,2554.55,2904.66,600.02,615.54,27.50,0000 0000 0000 0000 000000
2017-11-02 05:58:37,0.02,2.31,0.00,16.63,19.88,22.99,14.33,46.93,1027.28,2057.00,2660.01,2554.01,2904.02,599.81,615.33,27.55,0000 0000 0000 0000 000000
2017-11-02 06:03:38,0.06,2.31,0.00,16.64,19.89,22.98,14.34,46.95,1027.28,2057.00,2659.17,2553.61,2903.45,599.74,615.18,27.60,0000 0000 0000 0000 000000
2017-11-02 06:08:39,0.04,2.31,0.00,16.63,19.89,22.97,14.37,46.98,1027.21,2056.99,2658.31,2552.93,2902.76,599.95,615.39,27.65,0000 0000 0000 0000 000000
2017-11-02 06:13:40,0.10,2.32,0.00,16.63,19.90,22.99,14.38,47.02,1027.02,2056.99,2656.88,2551.95,2901.65,600.07,615.45,27.70,0000 0000 0000 0000 000000
2017-11-02 06:18:42,0.12,2.32,0.00,16.64,19.92,22.97,14.41,46.99,1027.01,2056.99,2655.19,2550.69,2900.20,600.08,615.42,27.75,0000 0000 0000 0000 000000
2017-11-02 06:23:43,0.06,2.33,0.00,16.65,19.92,22.99,14.44,47.02,1027.08,2056.99,2653.90,2549.81,2899.02,600.27,615.63,27.80,0000 0000 0000 0000 000000
2017-11-02 06:28:44,0.09,2.33,0.00,16.63,19.92,23.01,14.34,47.02,1027.24,2056.99,2652.61,2548.88,2898.03,600.16,615.71,27.85,0000 0000 0000 0000 000000
2017-11-02 06:33:46,0.06,2.34,0.00,16.64,19.94,23.03,14.49,47.03,1027.29,2056.98,2651.39,2548.05,2897.06,599.99,615.54,27.90,0000 0000 0000 0000 000000
2017-11-02 06:38:47,0.05,2.34,0.00,16.64,19.94,23.03,14.33,46.91,1027.27,2056.97,2650.83,2547.52,2896.25,599.72,615.32,27.95,0000 0000 0000 0000 000000
2017-11-02 06:43:49,0.02,2.34,0.00,16.65,19.94,23.03,14.36,47.04,1027.30,2056.97,2650.04,2547.02,2896.00,600.02,615.48,28.00,0000 0000 0000 0000 000000
2017-11-02 06:48:50,0.03,2.34,0.00,16.66,19.94,23.02,14.38,46.92,1027.27,2056.97,2649.54,2546.97,2895.47,599.74,615.20,28.05,0000 0000 0000 0000 000000
2017-11-02 06:53:51,0.04,2.35,0.00,16.69,19.96,23.07,14.37,47.05,1027.16,2056.97,2648.97,2546.20,2895.00,599.68,614.95,28.10,0000 0000 0000 0000 000000
2017-11-02 06:58:53,0.03,2.35,0.00,16.69,19.97,23.09,14.38,47.10,1027.03,2056.94,2648.13,2545.98,2894.35,599.91,615.07,28.15,0000 0000 0000 0000 000000
2017-11-02 07:03:54,0.05,2.35,0.00,16.69,19.97,23.07,14.31,46.95,1027.14,2056.96,2647.43,2545.48,2893.98,599.80,615.13,28.20,0000 0000 0000 0000 000000
2017-11-02 07:08:55,0.04,2.35,0.00,16.68,19.97,23.06,14.38,46.97,1027.22,2056.96,2646.45,2545.00,2893.22,600.02,615.31,28.25,0000 0000 0000 0000 000000
2017-11-02 07:13:56,0.05,2.35,0.00,16.68,19.99,23.07,14.43,47.00,1027.31,2056.97,2645.74,2544.40,2892.72,600.14,615.57,28.30,0000 0000 0000 0000 000000
2017-11-02 07:18:58,0.05,2.36,0.00,16.69,19.99,23.08,14.43,46.98,1027.35,2056.94,2644.65,2543.84,2891.88,599.94,615.39,28.35,0000 0000 0000 0000 000000
2017-11-02 07:23:59,0.08,2.36,0.00,16.69,19.99,23.11,14.38,47.04,1027.36,2056.93,2643.25,2542.90,2890.88,599.99,615.34,28.40,0000 0000 0000 0000 000000
2017-11-02 07:29:01,0.10,2.37,0.00,16.70,20.00,23.08,14.44,46.91,1027.36,2056.94,2641.66,2541.89,2889.78,600.35,615.83,28.45,0000 0000 0000 0000 000000
2017-11-02 07:34:02,0.10,2.37,0.00,16.71,20.01,23.09,14.37,46.92,1027.36,2056.87,2639.81,2540.76,2888.50,599.84,615.20,28.50,0000 0000 0000 0000 000000
2017-11-02 07:39:03,0.08,2.38,0.00,16.72,20.02,23.14,14.36,46.94,1027.36,2056.89,2638.35,2539.96,2887.33,599.77,615.10,28.55,0000 0000 0000 0000 000000
2017-11-02 07:44:04,0.05,2.38,0.00,16.72,20.02,23.12,14.33,46.92,1027.36,2056.88,2637.43,2539.15,2886.84,599.98,615.34,28.60,0000 0000 0000 0000 000000
2017-11-02 07:49:06,0.03,2.38,0.00,16.72,20.02,23.13,14.37,47.02,1027.36,2056.91,2636.78,2538.97,2886.07,600.02,615.39,28.65,0000 0000 0000 0000 000000
2017-11-02 07:54:07,0.03,2.38,0.00,16.73,20.04,23.15,14.41,46.93,1027.36,2056.81,2636.02,2538.37,2885.89,599.75,615.06,28.70,0000 0000 0000 0000 000000
2017-11-02 07:59:08,0.05,2.39,0.00,16.75,20.04,23.10,14.44,46.98,1027.37,2056.91,2635.42,2538.01,2885.14,599.84,615.35,28.75,0000 0000 0000 0000 000000
2017-11-02 08:04:10,0.03,2.39,0.00,16.77,20.04,23.14,14.38,46.99,1027.45,2056.86,2634.93,2537.70,2884.77,599.79,615.17,28.80,0000 0000 0000 0000 000000
2017-11-02 08:09:11,0.02,2.39,0.00,16.78,20.04,23.13,14.39,46.90,1027.61,2056.74,2634.44,2537.11,2884.06,599.91,615.33,28.85,0000 0000 0000 0000 000000
2017-11-02 08:14:12,0.00,2.39,0.00,16.79,20.05,23.14,14.33,46.92,1027.79,2056.65,2633.91,2537.00,2883.92,599.81,615.44,28.90,0000 0000 0000 0000 000000
2017-11-02 08:19:14,0.05,2.39,0.00,16.78,20.06,23.13,14.41,46.99,1027.83,2056.59,2633.12,2536.53,2883.13,599.92,615.43,28.95,0000 0000 0000 0000 000000
2017-11-02 08:24:15,-0.02,2.39,0.00,16.77,20.07,23.16,14.38,46.99,1027.84,2056.35,2632.97,2536.03,2882.95,599.88,615.35,29.00,0000 0000 0000 0000 000000
2017-11-02 08:29:16,0.02,2.39,0.00,16.79,20.07,23.19,14.41,47.02,1027.84,2056.07,2632.29,2535.98,2882.16,599.94,615.55,29.05,0000 0000 0000 0000 000000
2017-11-02 08:34:18,0.03,2.39,0.00,16.79,20.07,23.24,14.38,46.90,1027.84,2056.03,2631.89,2535.61,2881.99,599.84,615.49,29.10,0000 0000 0000 0000 000000
2017-11-02 08:39:19,0.04,2.39,0.00,16.78,20.07,23.22,14.34,46.96,1027.84,2056.02,2631.08,2535.03,2881.33,599.95,615.38,29.15,0000 0000 0000 0000 000000
2017-11-02 08:44:20,0.02,2.40,0.00,16.80,20.08,23.14,14.40,46.91,1027.85,2056.03,2630.68,2534.93,2880.99,599.93,615.42,29.20,0000 0000 0000 0000 000000
2017-11-02 08:49:21,0.05,2.40,0.00,16.82,20.09,23.17,14.37,46.97,1027.84,2056.03,2630.01,2534.25,2880.53,599.90,615.36,29.25,0000 0000 0000 0000 000000
2017-11-02 08:54:23,0.02,2.40,0.00,16.81,20.09,23.18,14.34,46.96,1027.85,2056.02,2629.25,2534.00,2880.01,599.93,615.44,29.30,0000 0000 0000 0000 000000
2017-11-02 08:59:24,0.04,2.40,0.00,16.82,20.09,23.19,14.39,46.95,1027.85,2056.01,2628.69,2533.71,2879.61,600.07,615.41,29.35,0000 0000 0000 0000 000000
2017-11-02 09:04:25,0.03,2.40,0.00,16.84,20.09,23.19,14.36,46.98,1027.85,2056.01,2628.03,2533.04,2879.03,599.85,615.26,29.40,0000 0000 0000 0000 000000
2017-11-02 09:09:27,0.02,2.41,0.00,16.85,20.10,23.22,14.35,46.99,1027.85,2056.01,2627.30,2532.94,2878.91,599.90,615.23,29.46,0000 0000 0000 0000 000000
2017-11-02 09:14:28,0.06,2.41,0.00,16.84,20.12,23.18,14.42,46.90,1027.85,2056.00,2626.76,2532.20,2878.10,600.54,615.93,29.51,0000 0000 0000 0000 000000
2017-11-02 09:19:29,0.01,2.41,0.00,16.82,20.12,23.23,14.39,47.00,1027.85,2056.01,2626.04,2532.00,2877.96,599.77,615.12,29.56,0000 0000 0000 0000 000000
2017-11-02 09:24:30,0.05,2.41,0.00,16.83,20.12,23.24,14.41,46.91,1027.85,2056.01,2625.44,2531.71,2877.18,600.01,615.53,29.61,0000 0000 0000 0000 000000
2017-11-02 09:29:31,0.02,2.41,0.00,16.84,20.12,23.23,14.43,46.96,1027.85,2056.01,2624.98,2531.06,2876.96,600.04,615.41,29.66,0000 0000 0000 0000 000000
2017-11-02 09:34:32,0.04,2.42,0.00,16.84,20.14,23.21,14.36,46.92,1027.85,2056.00,2624.18,2530.98,2876.23,599.91,615.24,29.71,0000 0000 0000 0000 000000
2017-11-02 09:39:34,0.04,2.42,0.00,16.85,20.14,23.23,14.40,46.99,1027.85,2056.00,2623.65,2530.37,2875.93,600.06,615.45,29.76,0000 0000 0000 0000 000000
2017-11-02 09:44:35,0.03,2.42,0.00,16.86,20.14,23.24,14.35,46.94,1027.86,2056.00,2623.02,2529.99,2875.17,599.80,615.20,29.81,0000 0000 0000 0000 000000
2017-11-02 09:49:36,0.04,2.42,0.00,16.86,20.15,23.25,14.36,46.98,1027.92,2056.00,2622.50,2529.65,2874.95,600.11,615.68,29.86,0000 0000 0000 0000 000000
2017-11-02 09:54:38,0.03,2.42,0.00,16.88,20.17,23.23,14.34,47.05,1027.94,2056.00,2621.89,2529.03,2874.18,599.76,615.24,29.91,0000 0000 0000 0000 000000
2017-11-02 09:59:39,0.02,2.42,0.00,16.88,20.17,23.26,14.33,46.83,1027.90,2056.00,2621.08,2528.93,2873.99,599.94,615.43,29.96,0000 0000 0000 0000 000000
2017-11-02 10:04:40,0.06,2.43,0.00,16.87,20.17,23.24,14.35,47.00,1027.92,2056.00,2620.73,2528.22,2873.21,600.01,615.36,30.01,0000 0000 0000 0000 000000
2017-11-02 10:09:41,0.01,2.43,0.00,16.89,20.17,23.24,14.38,46.95,1027.88,2056.00,2620.02,2528.01,2872.96,599.90,615.24,30.06,0000 0000 0000 0000 000000
2017-11-02 10:14:43,0.04,2.43,0.00,16.90,20.18,23.26,14.39,47.01,1027.89,2055.99,2619.45,2527.85,2872.18,599.96,615.29,30.11,0000 0000 0000 0000 000000
2017-11-02 10:19:44,0.03,2.43,0.00,16.90,20.19,23.28,14.41,47.06,1027.89,2055.98,2618.86,2527.09,2871.92,600.10,615.37,30.16,0000 0000 0000 0000 000000
2017-11-02 10:24:45,0.03,2.43,0.00,16.90,20.19,23.28,14.31,46.96,1027.89,2055.99,2618.06,2526.90,2871.17,600.05,615.38,30.21,0000 0000 0000 0000 000000
2017-11-02 10:29:47,0.04,2.44,0.00,16.89,20.19,23.33,14.43,46.98,1027.87,2055.98,2617.59,2526.14,2870.98,599.97,615.19,30.26,0000 0000 0000 0000 000000
2017-11-02 10:34:47,0.02,2.44,0.00,16.90,20.19,23.29,14.40,46.95,1027.88,2055.97,2616.99,2526.00,2870.22,600.16,615.53,30.31,0000 0000 0000 0000 000000
2017-11-02 10:39:49,0.04,2.44,0.00,16.91,20.19,23.29,14.38,47.00,1027.88,2055.96,2616.43,2525.71,2869.96,600.15,615.44,30.36,0000 0000 0000 0000 000000
2017-11-02 10:44:50,0.02,2.44,0.00,16.91,20.20,23.32,14.45,47.00,1027.87,2055.83,2615.96,2525.05,2869.17,600.34,615.54,30.41,0000 0000 0000 0000 000000
2017-11-02 10:49:51,0.01,2.44,0.00,16.91,20.20,23.34,14.31,46.95,1027.88,2055.63,2615.22,2524.98,2868.98,599.76,615.10,30.46,0000 0000 0000 0000 000000
2017-11-02 10:54:52,0.03,2.44,0.00,16.91,20.20,23.31,14.37,46.90,1027.87,2055.64,2614.93,2524.57,2868.45,599.51,614.93,30.51,0000 0000 0000 0000 000000
2017-11-02 10:59:54,0.04,2.45,0.00,16.93,20.20,23.30,14.33,46.98,1027.86,2055.66,2614.27,2524.08,2868.02,599.73,615.04,30.56,0000 0000 0000 0000 000000
2017-11-02 11:04:55,0.01,2.45,0.00,16.93,20.20,23.30,14.39,46.88,1027.85,2055.62,2613.84,2523.99,2867.89,599.82,615.04,30.61,0000 0000 0000 0000 000000
2017-11-02 11:09:57,0.04,2.45,0.00,16.91,20.20,23.30,14.33,46.82,1027.85,2055.60,2613.05,2523.81,2867.17,599.86,615.21,30.66,0000 0000 0000 0000 000000
2017-11-02 11:14:58,0.04,2.45,0.00,16.91,20.20,23.30,14.37,46.96,1027.85,2055.80,2612.81,2523.19,2867.00,599.98,615.16,30.71,0000 0000 0000 0000 000000
2017-11-02 11:19:59,0.01,2.45,0.00,16.91,20.20,23.34,14.36,46.92,1027.85,2055.61,2612.10,2523.01,2866.62,600.07,615.24,30.76,0000 0000 0000 0000 000000
2017-11-02 11:25:01,0.05,2.45,0.00,16.91,20.20,23.33,14.38,46.93,1027.85,2055.80,2611.51,2522.95,2866.05,600.29,615.52,30.81,0000 0000 0000 0000 000000
2017-11-02 11:30:02,0.03,2.45,0.00,16.92,20.20,23.34,14.31,46.90,1027.85,2055.69,2611.01,2522.39,2865.98,599.77,615.11,30.86,0000 0000 0000 0000 000000
2017-11-02 11:35:03,0.03,2.46,0.00,16.93,20.21,23.31,14.40,46.93,1027.85,2055.68,2610.42,2522.01,2865.39,600.03,615.09,30.91,0000 0000 0000 0000 000000
2017-11-02 11:40:05,0.00,2.46,0.00,16.93,20.21,23.29,14.31,47.01,1027.85,2055.53,2610.01,2521.98,2865.00,599.69,614.96,30.96,0000 0000 0000 0000 000000
2017-11-02 11:45:06,0.04,2.46,0.00,16.93,20.21,23.34,14.35,46.88,1027.85,2055.42,2609.57,2521.58,2864.69,599.88,615.10,31.01,0000 0000 0000 0000 000000
2017-11-02 11:50:07,0.00,2.46,0.00,16.93,20.21,23.35,14.35,46.95,1027.85,2055.32,2609.01,2521.03,2864.03,600.03,615.32,31.06,0000 0000 0000 0000 000000
2017-11-02 11:55:08,0.03,2.46,0.00,16.92,20.21,23.33,14.37,46.83,1027.85,2055.38,2608.52,2521.00,2863.98,600.25,615.57,31.11,0000 0000 0000 0000 000000
2017-11-02 12:00:09,0.00,2.46,0.00,16.93,20.21,23.34,14.48,46.96,1027.85,2055.19,2608.03,2520.83,2863.29,600.14,615.34,31.16,0000 0000 0000 0000 000000
2017-11-02 12:05:10,0.04,2.46,0.00,16.93,20.21,23.34,14.37,46.88,1027.85,2055.18,2607.78,2520.23,2863.00,599.86,615.09,31.21,0000 0000 0000 0000 000000
2017-11-02 12:10:12,0.02,2.46,0.00,16.93,20.21,23.34,14.38,46.98,1027.84,2055.17,2607.10,2520.01,2862.82,600.10,615.34,31.26,0000 0000 0000 0000 000000
2017-11-02 12:15:13,0.02,2.47,0.00,16.92,20.21,23.38,14.35,46.90,1027.85,2055.17,2606.82,2519.98,2862.09,599.75,614.88,31.31,0000 0000 0000 0000 000000
2017-11-02 12:20:14,0.04,2.47,0.00,16.93,20.21,23.32,14.31,46.86,1027.84,2055.18,2606.05,2519.54,2861.99,599.83,615.01,31.36,0000 0000 0000 0000 000000
2017-11-02 12:25:15,0.04,2.47,0.00,16.92,20.20,23.33,14.42,46.87,1027.84,2055.14,2605.30,2519.02,2861.35,600.15,615.41,31.41,0000 0000 0000 0000 000000
2017-11-02 12:30:16,0.01,2.47,0.00,16.91,20.20,23.35,14.32,46.86,1027.82,2055.16,2604.88,2518.96,2861.00,599.71,614.91,31.46,0000 0000 0000 0000 000000
2017-11-02 12:35:18,0.06,2.47,0.00,16.92,20.20,23.36,14.35,46.93,1027.76,2055.26,2604.14,2518.28,2860.73,599.85,614.94,31.51,0000 0000 0000 0000 000000
2017-11-02 12:40:19,-0.00,2.47,0.00,16.91,20.20,23.32,14.39,46.99,1027.66,2055.11,2603.98,2518.00,2860.03,599.84,615.08,31.56,0000 0000 0000 0000 000000
2017-11-02 12:45:20,0.02,2.47,0.00,16.89,20.19,23.32,14.39,46.90,1027.55,2055.08,2603.34,2517.96,2859.80,600.42,615.53,31.61,0000 0000 0000 0000 000000
2017-11-02 12:50:21,0.05,2.48,0.00,16.90,20.19,23.36,14.44,47.01,1027.50,2055.08,2602.88,2517.29,2859.06,600.37,615.41,31.66,0000 0000 0000 0000 000000
2017-11-02 12:55:22,0.03,2.48,0.00,16.88,20.19,23.33,14.37,46.98,1027.43,2055.16,2602.07,2517.01,2858.97,599.82,614.99,31.71,0000 0000 0000 0000 000000